Voltar ao catálogo

CZ-6A DEB

AtivoSSO
NORAD 69092·DEBRIS·🇨🇳 China

Lançado Nov 11, 2022 de Taiyuan Satellite Launch Center

Loading…

Próximas Passagens (próximas 24 horas)

TLE

AtualizadoSource: Space-Track

Época: Sep 13, 2026, 12:56 UTC

1 69092U 22151AJK 26256.53956207  .00004802  00000-0  16937-2 0  9997
2 69092  98.8330 285.2227 0027535  23.3581 336.8847 14.35011073174119

Acompanhe CZ-6A DEB em tempo real com AllMySat

Download on the App Store